Taihei Maru — JG5546 — position and weather

sailwx.info

Track history (hours):
 
Tides and Currents Weather Stations Pressure Air Temp Water Temp Dewpoint Dewpoint Depression Visibility Wind Speed Wind Dir Waves Ship Positions

Taihei Maru

Last reported at 2018-Jun-24 22:53 UTC. Time now 2018-Jun-25 00:18 UTC.
Position N 35°30' E 140°00'.

Length 62 m; draft 4.1 m.

Type: Ship. MMSI: 431301369.

Date/timePositionNaut miles runAvg speedWind from/ knotsBaromVisibWave heightAir tempDewpointWater temp
2018-Jun-24 22:53N 35°30' E 140°00'1 2.3
2018-Jun-24 22:30N 35°30' E 139°59'4 2.2
2018-Jun-24 20:46N 35°29' E 139°55'1 4.8
2018-Jun-24 20:30N 35°28' E 139°53'611.6
2018-Jun-24 20:00N 35°25' E 139°47'611.8
2018-Jun-24 19:31N 35°20' E 139°44'611.1
2018-Jun-24 19:00N 35°15' E 139°47'612.0
2018-Jun-24 18:30N 35°09' E 139°46'510.3
2018-Jun-24 18:00N 35°05' E 139°42'612.7
2018-Jun-24 17:30N 35°00' E 139°36'  
2018-Jun-21 20:16N 34°24' E 134°13'411.9
2018-Jun-21 19:58N 34°23' E 134°17'512.1
2018-Jun-21 19:30N 34°21' E 134°24'611.9
2018-Jun-21 19:00N 34°19' E 134°30'912.2
2018-Jun-21 18:15N 34°14' E 134°39'812.3
2018-Jun-21 17:34N 34°07' E 134°46'112.1
2018-Jun-21 17:26N 34°06' E 134°47'512.0
2018-Jun-21 16:59N 34°02' E 134°52'612.2
2018-Jun-21 16:30N 33°57' E 134°56'611.9
2018-Jun-21 16:00N 33°53' E 135°01'  
2018-Jun-19 08:44N 35°13' E 139°46'311.2
2018-Jun-19 08:31N 35°16' E 139°46'611.4
2018-Jun-19 08:01N 35°21' E 139°42'511.0
2018-Jun-19 07:31N 35°26' E 139°45'5 9.3
2018-Jun-19 07:00N 35°31' E 139°46'1 0.5
2018-Jun-19 04:15N 35°32' E 139°45'0 1.0
2018-Jun-19 04:00N 35°32' E 139°46'3 6.2
2018-Jun-19 03:30N 35°30' E 139°49'1 2.5
2018-Jun-19 03:00N 35°30' E 139°51'0 0.0
2018-Jun-19 02:30N 35°30' E 139°51'0 0.0
2018-Jun-19 01:59N 35°30' E 139°51'0 0.0
2018-Jun-19 01:30N 35°30' E 139°51'0 0.0
2018-Jun-19 01:00N 35°30' E 139°51'0 0.0
2018-Jun-19 00:28N 35°30' E 139°51'0 0.0
2018-Jun-19 00:00N 35°30' E 139°51'0 0.0
2018-Jun-18 23:30N 35°30' E 139°51'0 0.0
2018-Jun-18 23:00N 35°30' E 139°51'0 0.0
2018-Jun-18 22:31N 35°30' E 139°51'0 0.0
2018-Jun-18 21:57N 35°30' E 139°51'0 0.0
2018-Jun-18 21:30N 35°30' E 139°51'0 0.0
2018-Jun-18 21:00N 35°30' E 139°51'0 0.0
2018-Jun-18 20:30N 35°30' E 139°51'0 0.0
2018-Jun-18 20:00N 35°30' E 139°51'0 0.0
2018-Jun-18 19:31N 35°30' E 139°51'0 0.1
2018-Jun-18 19:00N 35°30' E 139°51'0 0.0
2018-Jun-18 18:30N 35°30' E 139°51'0 0.0
2018-Jun-18 18:01N 35°30' E 139°51'0 0.0
2018-Jun-18 17:31N 35°30' E 139°51'0 0.0
2018-Jun-18 17:00N 35°30' E 139°51'0 0.0
2018-Jun-18 16:30N 35°30' E 139°51'0 0.0
2018-Jun-18 16:01N 35°30' E 139°51'0 0.0
2018-Jun-18 15:30N 35°30' E 139°51'0 0.0
2018-Jun-18 15:00N 35°30' E 139°51'0 0.0
2018-Jun-18 14:30N 35°30' E 139°51'0 0.0
2018-Jun-18 14:00N 35°30' E 139°51'0 0.0
2018-Jun-18 13:29N 35°30' E 139°51'0 0.1
2018-Jun-18 13:00N 35°30' E 139°51'0 0.0
2018-Jun-18 12:30N 35°30' E 139°51'0 0.0
2018-Jun-18 12:01N 35°30' E 139°51'0 0.0
2018-Jun-18 11:30N 35°30' E 139°51'0 0.0
2018-Jun-18 10:59N 35°30' E 139°51'0 0.0
2018-Jun-18 10:31N 35°30' E 139°51'0 0.0
2018-Jun-18 10:01N 35°30' E 139°51'0 0.0
2018-Jun-18 09:29N 35°30' E 139°51'0 0.0
2018-Jun-18 09:00N 35°30' E 139°51'0 0.0
2018-Jun-18 08:30N 35°30' E 139°51'0 0.0
2018-Jun-18 07:56N 35°30' E 139°51'0 0.1
2018-Jun-18 07:30N 35°30' E 139°51'0 0.0
2018-Jun-18 07:00N 35°30' E 139°51'0 0.0
2018-Jun-18 05:39N 35°30' E 139°51'0 0.0
2018-Jun-18 05:30N 35°30' E 139°51'0 0.0
2018-Jun-18 04:57N 35°30' E 139°51'0 0.0
2018-Jun-18 04:28N 35°30' E 139°51'0 0.0
2018-Jun-18 04:01N 35°30' E 139°51'0 0.0
2018-Jun-18 03:30N 35°30' E 139°51'0 0.0
2018-Jun-18 03:00N 35°30' E 139°51'3 6.5
2018-Jun-18 02:30N 35°30' E 139°55'4 1.2
2018-Jun-17 22:47N 35°30' E 139°60'0 0.2
2018-Jun-17 22:24N 35°30' E 139°60'1 2.3
2018-Jun-17 21:59N 35°30' E 139°59'3 0.3
2018-Jun-17 10:54N 35°29' E 139°55'411.4
2018-Jun-17 10:30N 35°27' E 139°50'612.1
2018-Jun-17 10:00N 35°22' E 139°46'611.1
2018-Jun-17 09:30N 35°17' E 139°46'24810.6
2018-Jun-16 10:12N 33°50' E 135°04'211.5
2018-Jun-16 10:00N 33°51' E 135°02'611.5
2018-Jun-16 09:30N 33°56' E 134°57'612.0
2018-Jun-16 08:59N 34°00' E 134°53'612.1
2018-Jun-16 08:30N 34°05' E 134°48'712.6
2018-Jun-16 07:56N 34°10' E 134°42'1212.5
2018-Jun-16 06:57N 34°18' E 134°31'612.3
2018-Jun-16 06:30N 34°20' E 134°24'  
Track history (hours):
 
Tides and Currents Weather Stations Pressure Air Temp Water Temp Dewpoint Dewpoint Depression Visibility Wind Speed Wind Dir Waves Ship Positions

Taihei Maru

Last reported at 2018-Jun-24 22:53 UTC. Time now 2018-Jun-25 00:18 UTC.
Position N 35°30' E 140°00'.

Length 62 m; draft 4.1 m.

Type: Ship. MMSI: 431301369.

Date/timePositionNaut miles runAvg speedWind from/ knotsBaromVisibWave heightAir tempDewpointWater temp
2018-Jun-24 22:53N 35°30' E 140°00'1 2.3
2018-Jun-24 22:30N 35°30' E 139°59'4 2.2
2018-Jun-24 20:46N 35°29' E 139°55'1 4.8
2018-Jun-24 20:30N 35°28' E 139°53'611.6
2018-Jun-24 20:00N 35°25' E 139°47'611.8
2018-Jun-24 19:31N 35°20' E 139°44'611.1
2018-Jun-24 19:00N 35°15' E 139°47'612.0
2018-Jun-24 18:30N 35°09' E 139°46'510.3
2018-Jun-24 18:00N 35°05' E 139°42'612.7
2018-Jun-24 17:30N 35°00' E 139°36'  
2018-Jun-21 20:16N 34°24' E 134°13'411.9
2018-Jun-21 19:58N 34°23' E 134°17'512.1
2018-Jun-21 19:30N 34°21' E 134°24'611.9
2018-Jun-21 19:00N 34°19' E 134°30'912.2
2018-Jun-21 18:15N 34°14' E 134°39'812.3
2018-Jun-21 17:34N 34°07' E 134°46'112.1
2018-Jun-21 17:26N 34°06' E 134°47'512.0
2018-Jun-21 16:59N 34°02' E 134°52'612.2
2018-Jun-21 16:30N 33°57' E 134°56'611.9
2018-Jun-21 16:00N 33°53' E 135°01'  
2018-Jun-19 08:44N 35°13' E 139°46'311.2
2018-Jun-19 08:31N 35°16' E 139°46'611.4
2018-Jun-19 08:01N 35°21' E 139°42'511.0
2018-Jun-19 07:31N 35°26' E 139°45'5 9.3
2018-Jun-19 07:00N 35°31' E 139°46'1 0.5
2018-Jun-19 04:15N 35°32' E 139°45'0 1.0
2018-Jun-19 04:00N 35°32' E 139°46'3 6.2
2018-Jun-19 03:30N 35°30' E 139°49'1 2.5
2018-Jun-19 03:00N 35°30' E 139°51'0 0.0
2018-Jun-19 02:30N 35°30' E 139°51'0 0.0
2018-Jun-19 01:59N 35°30' E 139°51'0 0.0
2018-Jun-19 01:30N 35°30' E 139°51'0 0.0
2018-Jun-19 01:00N 35°30' E 139°51'0 0.0
2018-Jun-19 00:28N 35°30' E 139°51'0 0.0
2018-Jun-19 00:00N 35°30' E 139°51'0 0.0
2018-Jun-18 23:30N 35°30' E 139°51'0 0.0
2018-Jun-18 23:00N 35°30' E 139°51'0 0.0
2018-Jun-18 22:31N 35°30' E 139°51'0 0.0
2018-Jun-18 21:57N 35°30' E 139°51'0 0.0
2018-Jun-18 21:30N 35°30' E 139°51'0 0.0
2018-Jun-18 21:00N 35°30' E 139°51'0 0.0
2018-Jun-18 20:30N 35°30' E 139°51'0 0.0
2018-Jun-18 20:00N 35°30' E 139°51'0 0.0
2018-Jun-18 19:31N 35°30' E 139°51'0 0.1
2018-Jun-18 19:00N 35°30' E 139°51'0 0.0
2018-Jun-18 18:30N 35°30' E 139°51'0 0.0
2018-Jun-18 18:01N 35°30' E 139°51'0 0.0
2018-Jun-18 17:31N 35°30' E 139°51'0 0.0
2018-Jun-18 17:00N 35°30' E 139°51'0 0.0
2018-Jun-18 16:30N 35°30' E 139°51'0 0.0
2018-Jun-18 16:01N 35°30' E 139°51'0 0.0
2018-Jun-18 15:30N 35°30' E 139°51'0 0.0
2018-Jun-18 15:00N 35°30' E 139°51'0 0.0
2018-Jun-18 14:30N 35°30' E 139°51'0 0.0
2018-Jun-18 14:00N 35°30' E 139°51'0 0.0
2018-Jun-18 13:29N 35°30' E 139°51'0 0.1
2018-Jun-18 13:00N 35°30' E 139°51'0 0.0
2018-Jun-18 12:30N 35°30' E 139°51'0 0.0
2018-Jun-18 12:01N 35°30' E 139°51'0 0.0
2018-Jun-18 11:30N 35°30' E 139°51'0 0.0
2018-Jun-18 10:59N 35°30' E 139°51'0 0.0
2018-Jun-18 10:31N 35°30' E 139°51'0 0.0
2018-Jun-18 10:01N 35°30' E 139°51'0 0.0
2018-Jun-18 09:29N 35°30' E 139°51'0 0.0
2018-Jun-18 09:00N 35°30' E 139°51'0 0.0
2018-Jun-18 08:30N 35°30' E 139°51'0 0.0
2018-Jun-18 07:56N 35°30' E 139°51'0 0.1
2018-Jun-18 07:30N 35°30' E 139°51'0 0.0
2018-Jun-18 07:00N 35°30' E 139°51'0 0.0
2018-Jun-18 05:39N 35°30' E 139°51'0 0.0
2018-Jun-18 05:30N 35°30' E 139°51'0 0.0
2018-Jun-18 04:57N 35°30' E 139°51'0 0.0
2018-Jun-18 04:28N 35°30' E 139°51'0 0.0
2018-Jun-18 04:01N 35°30' E 139°51'0 0.0
2018-Jun-18 03:30N 35°30' E 139°51'0 0.0
2018-Jun-18 03:00N 35°30' E 139°51'3 6.5
2018-Jun-18 02:30N 35°30' E 139°55'4 1.2
2018-Jun-17 22:47N 35°30' E 139°60'0 0.2
2018-Jun-17 22:24N 35°30' E 139°60'1 2.3
2018-Jun-17 21:59N 35°30' E 139°59'3 0.3
2018-Jun-17 10:54N 35°29' E 139°55'411.4
2018-Jun-17 10:30N 35°27' E 139°50'612.1
2018-Jun-17 10:00N 35°22' E 139°46'611.1
2018-Jun-17 09:30N 35°17' E 139°46'24810.6
2018-Jun-16 10:12N 33°50' E 135°04'211.5
2018-Jun-16 10:00N 33°51' E 135°02'611.5
2018-Jun-16 09:30N 33°56' E 134°57'612.0
2018-Jun-16 08:59N 34°00' E 134°53'612.1
2018-Jun-16 08:30N 34°05' E 134°48'712.6
2018-Jun-16 07:56N 34°10' E 134°42'1212.5
2018-Jun-16 06:57N 34°18' E 134°31'612.3
2018-Jun-16 06:30N 34°20' E 134°24'  

Dump ship's entire track history